This is the latest recevied weather packets stored in our database for station/object DB0ADS-6. If no packets are shown the sender has not sent any weather packets the latest 10 day(s).
| Time | Temp. | Humidity | Pressure | Rain* | Wind** | Luminosity | Snow |
|---|---|---|---|---|---|---|---|
| 1777095349 | 10° C | 67% | 1016 hPa | 0 mm | - | - | - |
| 1777095047 | 10° C | 67% | 1016 hPa | 0 mm | - | - | - |
| 1777094745 | 10° C | 64% | 1016 hPa | 0 mm | - | - | - |
| 1777094439 | 8.89° C | 66% | 1015.9 hPa | 0 mm | - | - | - |
| 1777094137 | 8.33° C | 71% | 1015.9 hPa | 0 mm | - | - | - |
| 1777093835 | 7.78° C | 70% | 1015.8 hPa | 0 mm | - | - | - |
| 1777093553 | 7.78° C | 70% | 1015.8 hPa | 0 mm | - | - | - |
| 1777093226 | 7.78° C | 71% | 1015.8 hPa | 0 mm | - | - | - |
| 1777092925 | 7.78° C | 71% | 1015.8 hPa | 0 mm | - | - | - |
| 1777092626 | 7.22° C | 72% | 1015.8 hPa | 0 mm | - | - | - |
| 1777092321 | 7.78° C | 71% | 1015.8 hPa | 0 mm | - | - | - |
| 1777092074 | 7.78° C | 70% | 1015.8 hPa | 0 mm | - | - | - |
| 1777091773 | 7.78° C | 69% | 1015.8 hPa | 0 mm | - | - | - |
| 1777091471 | 7.78° C | 71% | 1015.7 hPa | 0 mm | - | - | - |
| 1777091169 | 7.22° C | 71% | 1015.6 hPa | 0 mm | - | - | - |
| 1777090862 | 6.67° C | 74% | 1015.5 hPa | 0 mm | - | - | - |
| 1777090560 | 6.67° C | 75% | 1015.5 hPa | 0 mm | - | - | - |
| 1777090259 | 6.11° C | 76% | 1015.5 hPa | 0 mm | - | - | - |
| 1777089957 | 6.11° C | 77% | 1015.5 hPa | 0 mm | - | - | - |
| 1777089649 | 6.11° C | 77% | 1015.6 hPa | 0 mm | - | - | - |
| 1777089348 | 6.11° C | 79% | 1015.6 hPa | 0 mm | - | - | - |
| 1777089046 | 6.11° C | 77% | 1015.6 hPa | 0 mm | - | - | - |
| 1777088738 | 6.11° C | 77% | 1015.6 hPa | 0 mm | - | - | - |
| 1777088437 | 5.56° C | 78% | 1015.7 hPa | 0 mm | - | - | - |
| 1777088135 | 6.11° C | 78% | 1015.8 hPa | 0 mm | - | - | - |
* Rain latest hour (hover to see other rain measurements)
** Current wind speed in m/s (hover to see current wind gust speed)